Regional Weather Roundup
Issued by NWS

Home | Current Version | Previous Version | Graphics & Text | Print | Product List | Glossary On
Versions: 1 2 3 4 5 6 7 8 9 10 11 12 13 14 15 16 17 18 19 20 21 22 23 24 25 26 27 28 29 30 31 32 33 34 35 36 37 38 39 40 41 42 43 44 45 46 47 48 49 50
000
ASUS45 KCYS 280810
RWRWY

WYOMING REGIONAL WEATHER ROUNDUP
NATIONAL WEATHER SERVICE CHEYENNE WY
200 AM MDT SUN MAY 28 2017

NOTE:  "FAIR" INDICATES FEW OR NO CLOUDS BELOW 12,000 FEET
WITH NO SIGNIFICANT WEATHER AND/OR OBSTRUCTIONS TO VISIBILITY.

WYZ001-280900-
YELLOWSTONE NATIONAL PARK

CITY           SKY/WX    TMP DP  RH WIND       PRES   REMARKS
LK YELLOWSTONE   N/A     28  28 100 W3        30.40S
W YELLOWSTONE  NOT AVBL

$$
WYZ002>013-054>058-071-098>099-280900-
NORTHERN WYOMING

CITY           SKY/WX    TMP DP  RH WIND       PRES   REMARKS
JACKSON        FAIR      34  32  93 N5        30.35S WCI  30
CODY           MOCLDY    53  33  46 SW6       30.24S
GREYBULL       CLOUDY    53  37  54 NE3       30.18R
WORLAND          N/A     47  40  76 S6        30.19S
SHERIDAN       FAIR      49  39  68 W8        30.14S
BUFFALO        FAIR      52  35  52 W10       30.18S
GILLETTE       FAIR      49  40  71 W13       30.13F
HULETT         CLOUDY    50  41  71 SW9       30.10F
NEWCASTLE      FAIR      43  37  81 N3        30.14F

$$
WYZ014>020-022>026-101>103-280900-
CENTRAL WYOMING

CITY           SKY/WX    TMP DP  RH WIND       PRES   REMARKS
BIG PINEY      FAIR      36  30  79 W5        30.35S WCI  32
PINEDALE       FAIR      32  30  93 NW7       30.36S WCI  26
DUBOIS         FAIR      36  30  80 NW6       30.35R WCI  31
LANDER         FAIR      49  29  46 SW13      30.26S
RIVERTON       FAIR      46  35  65 W7        30.26S
CASPER         MOCLDY    43  37  79 W8        30.23S
DOUGLAS        FAIR      40  36  86 NW5       30.20F

$$
WYZ021-027>030-104>119-280900-
SOUTHERN WYOMING

CITY           SKY/WX    TMP DP  RH WIND       PRES   REMARKS
EVANSTON       FAIR      44  30  57 S5        30.35S
KEMMERER         N/A     37  30  75 N10       30.36S WCI  30
FORT BRIDGER   FAIR      45  30  57 W7        30.37S
ROCK SPRINGS   CLOUDY    45  28  51 SE7       30.33R
DIXON            N/A     36  30  79 CALM      30.36R
RAWLINS        FAIR      35  29  78 NW5       30.32R WCI  31
SARATOGA       FAIR      32  32 100 E7        30.34S WCI  26
LARAMIE        FAIR      31  28  89 S6        30.31S WCI  25
CHEYENNE       FAIR      41  32  70 W9        30.25S
TORRINGTON     FAIR      46  38  73 W5        30.16R
PINE BLUFFS    FAIR      37  36  93 MISG      30.23S

$$



USA.gov is the U.S. government's official web portal to all federal, state and local government web resources and services.